RH
35 10 6 7 9 7 8 9 7 8 10 18 16 18 27 27 36 54 40 53 65 55 44 46 82 77 82 83 84 83 83 85 84 76 81 79 79 83 85 81 82 89 82 71 71 74 74 74 81
9 4 6 6 9 9 8 8 8 7 7 12 19 16 21 38 28 38 35 48 59 61 48 42 85 81 78 82 81 82 80 82 86 84 81 78 87 87 82 78 74 81 83 90 70 70 73 78 85
12 4 5 6 7 10 13 9 8 6 8 10 18 21 26 40 35 37 39 44 48 50 48 56 88 87 81 79 79 78 78 78 80 84 80 76 82 79 74 76 80 82 84 79 73 70 77 84 87
5 4 5 8 9 9 10 9 8 6 10 11 15 33 40 46 42 36 38 41 53 58 56 74 88 84 78 70 72 76 76 75 78 82 82 80 74 83 76 78 86 87 82 81 74 76 84 88 86
4 4 6 7 8 7 7 8 8 9 15 17 16 27 44 50 53 48 47 47 46 53 61 65 92 87 80 74 68 73 78 78 77 79 82 80 78 80 79 78 80 81 92 92 76 79 89 86 83
5 4 7 8 8 7 7 8 10 13 15 20 20 29 38 47 53 57 42 38 36 41 50 59 86 89 87 86 84 82 79 78 79 76 79 79 81 81 78 82 84 83 82 84 85 86 83 81 80
6 6 7 7 8 8 7 6 8 9 14 19 20 23 35 40 51 53 41 38 38 38 41 42 44 66 87 85 83 85 85 81 81 84 83 82 85 84 82 89 87 85 79 82 78 84 82 78 81
5 5 6 6 7 8 7 8 8 8 9 14 13 18 31 36 50 46 43 42 41 40 36 40 40 40 47 49 79 81 85 85 84 88 89 88 82 84 87 81 81 82 79 78 89 84 82 80 81
4 6 7 7 7 7 6 6 9 10 9 11 13 15 27 36 42 41 38 37 34 34 38 48 44 48 47 38 45 73 79 78 82 81 83 81 57 69 64 83 84 81 83 80 84 82 85 86 88
6 7 8 7 6 6 5 6 8 9 11 13 17 24 30 34 32 32 32 31 29 31 31 35 52 54 50 34 39 48 52 49 50 50 57 49 59 62 63 79 88 86 86 84 84 86 81 88 64
8 8 7 8 9 8 7 7 8 8 10 10 14 20 28 29 29 31 26 23 22 27 28 35 47 55 54 47 43 62 56 54 51 56 52 64 59 63 62 69 67 76 83 78 88 92 92 92 93
11 10 10 11 11 10 10 10 10 10 10 12 13 16 22 26 26 24 22 19 21 25 28 33 47 52 50 38 38 43 42 44 43 52 56 59 56 68 66 69 66 75 78 81 89 97 95 88 85
13 13 14 13 14 14 14 13 14 12 12 14 16 20 21 21 20 18 17 19 20 24 27 29 37 45 47 45 42 43 41 38 40 40 48 44 46 58 56 59 57 61 65 79 84 87 90 93 89
14 15 16 15 14 14 16 11 12 11 13 15 16 17 16 16 16 16 18 19 21 21 25 28 31 36 37 40 43 41 37 34 33 38 45 52 50 57 55 55 57 56 70 78 88 90 87 89 86
16 17 15 14 12 13 13 11 14 9 13 13 15 16 15 14 15 16 17 18 19 20 22 25 26 30 33 34 31 26 25 28 32 38 47 47 45 52 48 45 45 48 60 73 78 81 87 89 87
15 15 10 10 12 12 11 10 8 8 11 13 12 13 15 15 15 14 16 17 18 18 20 20 13 23 26 27 24 21 23 27 31 35 38 43 43 42 43 40 42 45 44 48 55 65 75 78 81
10 12 13 12 9 11 10 12 7 7 9 11 11 10 12 14 14 14 15 17 19 19 19 20 20 22 24 25 20 26 31 24 25 30 30 37 35 34 32 34 37 39 33 36 35 36 47 50 54
15 16 15 14 10 12 13 13 10 8 8 8 9 10 10 11 13 14 16 18 18 21 20 20 20 22 24 22 25 23 24 25 26 25 25 31 28 29 29 29 35 34 31 33 37 39 33 36 40
17 17 16 13 13 17 16 15 11 8 8 10 10 12 12 12 11 13 18 20 21 23 23 21 22 23 22 21 22 23 26 25 25 22 26 28 24 28 31 26 28 32 31 35 40 39 41 35 34
15 18 17 15 13 17 16 14 10 10 11 11 12 13 14 15 14 16 18 22 25 24 24 21 20 22 23 19 21 21 23 21 22 23 29 31 30 30 28 30 30 31 32 38 38 41 39 38 36
16 21 21 21 18 15 16 13 11 12 11 12 13 15 14 16 15 16 19 22 26 27 27 23 20 20 23 23 18 21 24 26 23 23 25 30 34 32 32 33 33 35 36 35 38 38 40 38 40
21 20 22 22 23 21 16 16 12 12 12 12 14 15 16 16 16 16 18 20 24 28 28 25 23 21 20 24 23 29 23 22 21 22 20 20 26 31 32 32 33 36 36 40 42 33 43 46 42
23 22 25 24 26 24 19 19 12 13 13 13 14 15 16 17 17 18 18 18 19 24 30 30 26 24 22 23 32 31 35 30 24 25 28 31 31 31 30 32 35 38 36 40 47 50 51 43 46
22 24 21 23 26 37 24 21 14 13 14 14 14 15 18 18 19 18 18 18 20 26 30 32 29 26 24 25 27 40 43 37 32 35 36 40 35 36 33 28 35 38 39 39 43 49 50 50 49
23 28 42 44 40 36 21 26 20 14 14 14 16 17 18 20 21 21 20 20 20 22 26 30 30 29 26 28 31 37 40 40 40 36 35 33 34 31 34 36 43 36 35 35 37 44 48 46 46
30 30 51 71 44 37 22 26 17 13 13 14 17 18 20 20 23 23 23 23 22 23 24 26 26 27 26 27 30 33 35 35 35 32 34 34 31 31 32 34 34 34 34 35 39 40 42 45 46
32 40 31 47 44 56 33 20 16 14 14 17 18 18 21 23 24 24 24 26 25 26 27 29 27 27 26 27 30 34 38 38 34 33 35 33 32 27 30 34 36 36 36 36 39 42 45 46 50
32 28 48 51 90 65 32 31 25 20 18 17 19 22 24 24 25 25 25 27 28 28 28 32 30 28 28 26 31 36 36 35 34 35 36 36 35 34 34 34 34 34 35 37 40 43 43 48 49
35 39 36 33 44 68 63 37 22 24 24 23 22 23 24 25 26 26 26 26 28 30 29 30 30 29 31 27 36 38 35 34 33 33 32 34 35 34 34 33 34 35 36 37 40 42 43 46 47
29 35 36 58 55 53 61 57 24 24 23 23 24 24 25 25 26 26 27 30 30 30 27 28 30 31 28 31 35 36 35 32 33 35 34 36 36 37 36 35 34 34 34 35 36 40 37 41 43
Wind_Speed
17 12 6 6 9 9 14 9 8 5 10 10 7 14 20 21 17 8 10 12 6 7 3 8 3 1 1 3 2 3 6 8 8 2 5 7 5 10 10 7 7 9 19 7 8 10 10 8 6
11 7 8 9 11 8 6 14 8 11 10 2 4 5 13 17 16 14 9 9 6 3 6 11 6 2 1 2 1 3 4 8 10 10 7 2 13 9 7 5 5 11 10 16 9 8 9 9 9
12 9 11 6 10 7 12 6 11 5 2 5 5 12 9 10 16 8 10 9 7 8 6 11 7 7 6 5 4 5 6 9 11 9 7 8 11 13 9 10 8 9 13 19 11 6 6 8 7
7 7 6 10 3 12 12 8 1 6 5 3 6 10 9 6 3 10 12 8 9 9 6 9 8 6 5 4 4 5 6 8 9 11 13 11 6 11 11 11 10 11 15 16 11 15 11 7 6
9 7 5 6 8 7 9 4 1 2 9 4 6 12 8 7 6 9 8 5 5 7 6 7 5 4 4 5 6 7 8 8 9 9 9 7 8 10 4 2 2 6 7 15 4 4 8 4 4
8 7 7 8 9 11 10 8 7 7 7 3 10 12 7 8 6 5 6 4 4 8 7 8 9 5 4 5 6 6 6 6 7 7 8 8 9 9 7 8 9 6 5 9 7 8 7 6 3
15 9 12 9 10 8 8 7 7 5 6 7 3 5 12 9 6 4 3 4 3 3 3 3 2 8 8 7 5 4 5 5 6 6 6 7 7 7 11 18 19 19 16 15 3 8 6 5 4
7 2 6 4 8 9 3 6 3 9 9 1 5 3 13 10 9 7 5 3 2 1 2 3 3 3 3 6 7 4 5 5 5 6 5 7 10 10 14 12 17 20 19 24 20 5 3 5 3
10 6 7 5 2 6 4 4 5 1 1 1 2 5 8 11 10 9 7 7 4 2 2 3 7 4 5 4 5 7 7 6 9 9 6 8 6 7 6 9 14 15 16 19 23 23 18 2 2
10 6 8 5 3 6 2 6 4 6 6 6 4 3 6 9 8 7 6 4 2 1 3 4 5 5 6 3 2 3 6 6 4 2 2 2 1 1 2 5 3 8 10 11 14 13 17 16 8
9 11 1 4 9 9 10 6 3 9 9 2 6 8 8 9 8 6 5 1 0 1 3 5 4 4 5 4 3 5 4 4 3 2 1 4 1 1 4 2 2 1 4 2 5 3 4 8 9
8 6 6 8 6 7 8 9 9 7 8 7 5 6 9 9 7 6 5 3 3 2 1 2 3 1 3 1 1 4 3 3 3 4 3 3 2 2 1 1 2 1 2 2 2 1 5 9 10
5 4 2 1 2 4 5 7 8 10 1 3 2 4 8 8 8 4 4 2 3 4 1 0 1 1 1 2 4 4 3 3 3 3 4 3 3 3 2 2 1 3 2 3 5 6 7 9 9
2 2 1 3 1 4 9 12 6 11 6 8 9 11 11 10 9 8 7 7 5 3 3 4 5 3 2 4 3 3 3 4 3 3 4 4 3 2 3 1 2 3 5 6 4 5 6 7 7
1 11 5 4 4 8 10 19 10 6 8 11 13 13 13 12 12 12 10 8 7 6 6 7 6 7 6 7 6 4 4 4 4 4 5 5 4 4 3 3 3 4 3 5 5 6 5 6 7
6 8 7 6 4 4 9 13 6 9 10 12 12 13 14 15 15 13 11 9 9 9 9 8 6 7 7 5 6 4 5 4 5 4 5 5 4 3 2 2 3 4 3 2 3 4 4 4 6
5 9 7 8 2 7 8 17 10 7 12 13 14 13 14 14 15 14 13 10 9 8 8 7 7 6 6 5 4 2 4 5 4 4 5 4 4 2 2 2 3 4 3 3 5 5 4 6 6
10 11 11 12 7 10 16 19 14 15 14 14 13 13 13 12 14 13 12 9 9 8 8 9 8 7 7 5 4 5 4 4 5 4 4 5 4 2 2 1 2 4 3 4 4 6 6 6 6
7 11 15 12 7 12 13 20 15 9 6 4 6 5 8 9 9 9 10 10 11 10 11 11 11 9 8 7 7 6 6 6 5 5 5 4 3 5 3 4 3 3 5 3 5 6 8 7 5
12 13 11 11 14 17 17 18 10 6 5 3 2 3 1 2 3 5 10 13 13 13 13 13 13 12 10 8 7 7 7 6 7 5 6 6 5 6 5 4 5 6 6 7 7 6 8 7 7
14 11 16 18 19 17 13 12 7 7 8 6 6 5 4 3 3 4 8 12 13 14 14 14 14 13 12 12 7 6 6 6 7 8 8 12 10 9 8 7 6 6 7 8 8 9 10 9 8
12 10 15 19 18 10 12 8 4 3 8 6 4 5 5 5 3 2 5 8 12 13 13 14 14 14 13 13 11 12 10 10 9 8 6 6 5 7 9 9 8 8 7 9 9 10 10 10 11
9 16 16 15 12 12 4 7 3 5 2 3 2 4 5 7 7 7 8 9 9 10 13 14 15 16 15 13 12 9 10 9 8 7 8 7 7 7 7 8 9 8 8 10 11 11 11 11 11
14 19 20 1 7 6 6 3 12 6 2 2 3 5 5 7 9 10 11 8 9 7 11 13 15 17 16 16 15 13 12 10 8 5 4 3 5 4 5 6 7 8 9 11 11 12 14 12 12
14 13 6 4 5 8 5 8 14 7 4 3 4 6 6 8 9 10 12 12 11 9 11 12 15 18 18 17 16 14 13 11 11 7 5 5 4 5 6 7 7 8 11 13 12 12 13 13 13
8 9 3 5 7 13 17 9 6 0 4 4 2 5 7 7 12 14 14 13 12 13 12 14 17 18 19 18 17 14 13 8 6 6 2 3 5 5 7 8 10 11 13 13 13 11 12 14 13
3 6 6 7 9 7 10 12 16 12 1 1 8 9 9 12 14 12 13 14 12 12 16 17 17 19 18 16 13 12 10 10 8 6 5 5 5 6 9 9 11 13 13 14 14 11 14 14 14
8 8 5 4 6 11 10 16 11 6 8 6 10 10 12 14 13 14 12 12 12 16 18 14 17 18 15 14 8 8 9 9 7 5 5 6 6 9 10 12 13 14 15 15 15 13 15 15 13
7 9 5 6 7 7 10 7 11 22 23 16 11 12 15 15 14 14 15 16 18 17 16 15 15 13 11 9 7 10 9 8 5 4 5 7 8 10 12 14 15 15 16 16 15 17 18 18 17
7 9 10 8 9 9 16 18 21 14 6 8 15 15 14 15 14 14 16 20 19 19 14 14 10 10 9 7 9 9 9 6 5 6 7 8 10 12 14 15 16 17 17 17 18 19 18 19 18
Wind_Direction
282 241 269 259 237 236 242 100 23 148 158 26 41 42 56 40 27 49 64 56 33 49 71 125 64 7 351 80 73 90 80 70 45 84 165 181 112 29 14 71 70 356 297 240 186 191 172 161 163
295 289 236 254 253 208 169 98 197 44 16 118 94 132 79 56 77 63 53 79 131 93 313 70 52 20 305 303 0 16 54 54 55 50 37 46 130 131 206 208 202 258 269 291 231 188 188 163 165
257 257 256 231 238 354 63 111 53 33 94 194 106 14 27 50 41 71 51 64 64 76 30 67 25 351 355 344 350 341 27 30 40 51 54 51 119 147 190 215 228 265 265 241 223 216 149 129 150
242 203 226 242 131 49 36 53 349 180 120 288 86 93 103 20 63 57 68 61 87 63 62 71 20 353 359 347 9 17 32 54 54 44 41 31 35 165 177 223 247 267 297 260 237 201 146 145 131
232 256 230 77 78 70 62 56 162 144 59 64 273 102 86 84 37 38 70 76 71 72 69 104 70 31 22 24 29 30 39 42 49 62 71 50 43 44 78 208 272 253 68 307 303 115 114 115 122
242 269 184 124 106 107 72 51 60 80 100 360 129 123 92 134 141 31 119 126 57 120 152 168 137 120 89 58 38 27 29 38 53 55 64 61 38 52 50 39 44 27 85 147 123 107 100 97 81
262 256 70 108 113 87 65 66 36 63 74 71 7 229 122 152 136 195 139 110 133 102 124 163 154 141 151 130 84 51 43 30 33 53 59 83 83 63 61 58 57 40 40 14 48 115 114 109 89
294 8 131 134 126 87 82 99 22 8 79 99 324 172 164 139 161 199 192 199 231 201 353 315 251 18 316 161 116 103 85 91 91 91 100 130 121 100 89 84 69 69 54 30 12 6 96 103 101
257 233 106 84 41 112 100 257 77 260 283 74 358 334 66 139 167 199 190 207 198 23 12 347 323 325 303 289 102 175 139 150 146 132 131 184 156 136 159 112 102 82 69 61 42 21 341 86 138
282 62 53 6 12 1 124 321 353 258 180 158 171 134 148 168 187 203 208 177 126 40 27 21 339 332 301 290 310 125 43 44 26 67 146 204 182 357 346 100 89 119 107 83 76 22 14 325 285
3 66 96 66 22 322 331 272 284 268 253 132 228 168 180 193 194 206 211 132 185 85 27 9 5 338 290 50 309 99 130 218 127 118 329 82 150 215 244 230 252 326 110 154 87 121 46 317 309
101 48 357 36 354 319 314 331 290 281 315 356 285 169 187 200 203 212 203 208 229 253 3 61 51 41 1 317 125 120 128 138 107 66 113 101 147 124 292 7 334 306 228 229 46 61 174 241 265
70 78 3 97 268 340 326 270 293 287 136 244 181 205 205 214 214 204 248 253 270 256 240 288 94 64 91 81 69 71 115 63 64 63 41 27 70 73 137 112 98 333 339 252 206 215 208 227 253
61 349 99 280 333 242 288 297 246 244 180 205 202 218 224 220 229 216 220 230 236 236 213 203 207 199 190 89 117 133 120 138 86 67 53 52 53 33 68 41 24 23 1 336 295 240 241 242 239
338 262 182 200 331 295 315 263 206 234 193 226 218 225 231 226 226 228 227 229 218 205 191 192 193 183 178 160 173 154 146 143 121 102 78 62 60 63 14 25 1 25 21 3 9 5 328 292 271
261 252 293 102 302 100 280 292 139 198 210 232 234 225 233 234 232 227 225 223 208 207 202 194 198 186 192 163 192 164 155 157 146 138 128 121 102 74 72 30 9 3 340 355 342 343 334 304 294
171 337 344 312 227 304 276 303 299 247 222 248 262 262 228 229 229 229 220 222 213 215 216 207 207 201 198 183 182 158 166 191 159 167 144 142 128 101 10 17 23 328 346 356 337 333 323 321 304
340 333 322 311 0 324 295 286 302 287 272 263 252 245 261 247 225 221 226 215 232 215 225 214 210 201 209 186 197 199 203 187 196 190 150 189 136 141 305 159 320 306 322 339 357 327 321 307 305
297 299 305 346 8 317 301 297 301 324 334 333 297 273 264 265 265 203 201 221 228 221 224 221 214 204 211 208 216 212 221 214 224 220 198 190 198 193 243 306 298 292 304 318 294 308 308 305 308
299 316 345 319 334 313 294 298 289 65 58 59 67 115 59 302 257 212 218 217 226 234 222 226 222 209 217 221 227 242 230 219 238 222 195 241 225 250 258 250 292 309 308 302 300 310 303 299 295
331 347 338 322 322 288 320 255 164 128 119 123 111 101 113 36 339 225 234 233 228 232 238 232 232 232 216 245 227 222 246 256 232 231 230 213 224 251 253 268 284 296 295 295 301 299 300 297 310
303 354 322 316 329 323 344 311 147 112 109 133 91 40 26 13 352 279 289 258 238 243 235 243 242 237 230 224 245 233 239 239 234 236 241 268 273 235 259 263 272 277 285 286 283 281 307 304 293
311 325 301 287 302 311 141 264 185 123 197 128 162 4 353 343 348 326 313 304 270 240 229 233 239 242 239 230 219 249 230 254 260 266 263 270 272 269 268 282 288 289 291 294 300 295 288 289 288
303 307 296 176 245 257 224 290 285 154 43 289 321 334 331 321 323 318 319 293 286 253 237 238 239 244 238 239 230 231 250 253 264 280 275 280 279 309 285 299 306 304 299 289 288 293 292 288 285
328 331 321 307 222 284 121 275 256 292 184 260 316 311 324 342 319 316 317 314 305 265 246 238 242 246 247 235 235 236 243 254 256 253 243 284 308 289 311 321 319 305 302 298 291 285 282 280 277
314 326 324 294 308 307 304 253 205 228 162 212 239 277 254 280 347 330 324 324 310 297 264 264 248 248 248 243 233 234 243 236 232 229 219 245 254 277 292 291 289 290 291 290 286 281 276 275 272
36 283 5 270 262 268 262 264 253 259 132 106 248 297 337 345 311 314 325 322 311 284 282 281 271 266 249 248 238 229 215 216 203 179 209 252 277 279 279 296 287 283 282 281 280 277 276 276 276
273 354 254 196 291 300 296 310 286 241 244 314 306 359 322 301 329 328 325 322 317 312 305 286 287 269 259 251 220 213 203 199 200 202 234 259 281 281 293 296 290 288 285 282 280 277 275 273 271
276 259 224 273 279 285 298 266 327 309 310 313 325 301 315 332 336 332 325 324 320 312 302 295 287 281 263 236 184 208 198 196 202 221 259 273 294 291 292 290 288 284 281 278 277 275 272 268 268
270 275 274 281 287 286 296 284 276 273 301 297 281 306 337 334 333 326 334 327 322 317 310 295 278 268 247 186 185 196 202 194 217 241 275 287 286 289 284 283 281 280 278 277 274 272 272 274 274